TimeEST,TemperatureF,Dew PointF,Humidity,Sea Level PressureIn,VisibilityMPH,Wind Direction,Wind SpeedMPH,Gust SpeedMPH,PrecipitationIn,Events,Conditions,WindDirDegrees,DateUTC
12:51 AM,55.0,51.1,86,29.95,10.0,South,9.2,-,N/A,,Scattered Clouds,190,2012-12-05 05:51:00
1:51 AM,55.0,51.1,86,29.93,10.0,South,6.9,-,0.00,Rain,Light Rain,190,2012-12-05 06:51:00
2:51 AM,55.9,51.1,84,29.91,10.0,South,6.9,-,0.01,,Overcast,190,2012-12-05 07:51:00
3:51 AM,57.9,52.0,81,29.91,10.0,West,11.5,20.7,0.00,,Mostly Cloudy,260,2012-12-05 08:51:00
4:32 AM,57.2,51.8,82,29.93,10.0,West,6.9,17.3,N/A,,Overcast,280,2012-12-05 09:32:00
4:47 AM,55.4,51.8,88,29.93,10.0,NW,16.1,21.9,N/A,,Overcast,310,2012-12-05 09:47:00
4:51 AM,55.9,51.1,84,29.93,10.0,NW,16.1,-,N/A,,Overcast,320,2012-12-05 09:51:00
5:51 AM,54.0,46.0,75,29.95,10.0,NW,16.1,20.7,0.00,Rain,Light Rain,320,2012-12-05 10:51:00
6:51 AM,53.1,46.0,77,29.99,10.0,NW,13.8,-,0.00,,Overcast,320,2012-12-05 11:51:00
7:51 AM,52.0,44.1,74,30.01,10.0,NW,12.7,-,N/A,,Overcast,310,2012-12-05 12:51:00
9:51 AM,51.1,39.0,63,30.04,10.0,NW,17.3,-,N/A,,Mostly Cloudy,320,2012-12-05 14:51:00
10:51 AM,51.1,36.0,56,30.03,10.0,NW,15.0,-,N/A,,Mostly Cloudy,310,2012-12-05 15:51:00
11:51 AM,52.0,35.1,53,30.01,10.0,NW,16.1,-,N/A,,Mostly Cloudy,310,2012-12-05 16:51:00
12:51 PM,52.0,34.0,50,30.01,10.0,NW,18.4,24.2,N/A,,Scattered Clouds,310,2012-12-05 17:51:00
1:51 PM,55.0,34.0,45,30.00,10.0,NW,19.6,-,N/A,,Scattered Clouds,310,2012-12-05 18:51:00
2:51 PM,52.0,32.0,47,30.02,10.0,NW,20.7,28.8,N/A,,Scattered Clouds,320,2012-12-05 19:51:00
3:51 PM,51.1,32.0,48,30.04,10.0,NNW,15.0,-,N/A,,Scattered Clouds,340,2012-12-05 20:51:00
4:51 PM,46.9,30.9,54,30.09,10.0,NNW,17.3,26.5,N/A,,Scattered Clouds,330,2012-12-05 21:51:00
5:51 PM,45.0,25.0,46,30.13,10.0,NNW,21.9,35.7,N/A,,Scattered Clouds,330,2012-12-05 22:51:00
6:51 PM,42.1,23.0,47,30.16,10.0,NNW,25.3,34.5,N/A,,Scattered Clouds,330,2012-12-05 23:51:00
7:51 PM,41.0,24.1,51,30.19,10.0,NW,17.3,32.2,N/A,,Partly Cloudy,320,2012-12-06 00:51:00
8:51 PM,39.9,24.1,53,30.19,10.0,NNW,17.3,27.6,N/A,,Scattered Clouds,330,2012-12-06 01:51:00
9:51 PM,37.4,23.0,56,30.21,10.0,NW,19.6,27.6,N/A,,Partly Cloudy,320,2012-12-06 02:51:00
10:51 PM,37.0,21.9,54,30.23,10.0,NW,17.3,25.3,N/A,,Partly Cloudy,320,2012-12-06 03:51:00
11:51 PM,36.0,24.1,62,30.22,10.0,NW,18.4,25.3,N/A,,Partly Cloudy,320,2012-12-06 04:51:00